{"data":{"norad_id":68822,"intl_designator":"2026-089W","name":"STARLINK-37462","alt_names":[],"object_type":"PAYLOAD","status":"ACTIVE","operator":null,"country":"US","launch_date":"2026-04-23","launch_site_code":"AFWTR","launch_vehicle":null,"mission":null,"orbit_class":"UNKNOWN","rcs_meters":null,"size_class":null,"mass_kg":null,"dimensions":null,"purposes":["comms"],"wikipedia_slug":null,"has_3d_model":false,"image_url":null,"decayed_at":null,"tle_current":{"epoch":"2026-09-19T23:47:23.767584Z","epoch_age_seconds":83966,"freshness":"FRESH","line1":"1 68822U 26089W   26262.99124731  .00017669  00000+0  54816-3 0  9990","line2":"2 68822  97.2861 108.8021 0002287  94.2914 265.8590 15.33453744 23187","mean_motion":15.33453744,"eccentricity":0.0002287,"inclination_deg":97.2861,"raan_deg":108.8021,"arg_perigee_deg":94.2914,"mean_anomaly_deg":265.859,"bstar":0.00054816,"rev_number":2318,"period_min":93.905669188545,"perigee_km":463.95201490361,"apogee_km":467.08230231576,"semimajor_km":6843.6541586097,"source":"CELESTRAK","updated_at":"2026-09-20T09:00:44.011708Z"}}}